Home   Weather   Port Elizabeth   Past weeks

Flag for South Africa Past Weather in Port Elizabeth, South Africa — Yesterday and Last 2 Weeks

Now
57 °F

Clear.


Feels Like: 54 °F
Forecast: 54 / 63 °F
Wind: 13 mph from West

Location: Port Elizabeth Airport

Current Time: Jul 21, 2017 at 8:55:48 pm

Latest Report: Jul 21, 2017 at 7:00 pm


Visibility: 10 mi

Pressure: 30.07 "Hg

Humidity: 77%

Dew Point: 50 °F

Location of Port ElizabethLocation

Past Weather in Port Elizabeth — Graph

°F

Port Elizabeth Temperature Yesterday

Maximum temperature yesterday: 63 °F (at 2:00 pm)
Minimum temperature yesterday: 55 °F (at 10:00 pm)
Average temperature yesterday: 59 °F

High & Low Weather Summary for the Past Weeks

 TemperatureHumidityPressure
High90 °F (Jul 7, 1:00 pm)100% (Jul 9, 2:00 am)30.39 "Hg (Jul 9, 2:00 am)
Low37 °F (Jul 18, 6:00 am)12% (Jul 7, 3:00 pm)29.83 "Hg (Jul 8, 5:00 pm)
Average58 °F69%30.13 "Hg
* Reported Jul 6 7:00 pm — Jul 21 7:00 pm, Port Elizabeth. Weather by CustomWeather, © 2017

Note: Actual official high and low records may vary slightly from our data, if they occured in-between our weather recording intervals... More about our weather records

Advertising

Port Elizabeth Weather History for the Previous 24 Hours

Scroll right to see more
 ConditionsComfort  
Time TempWeatherWind HumidityBarometerVisibility
7:00 pm
Fri, Jul 21
57 °FClear.13 mph77%30.07 "Hg10 mi
6:00 pm57 °FPassing clouds.16 mph77%30.04 "HgN/A
5:00 pm59 °FSunny.16 mph68%30.04 "Hg10 mi
4:00 pm61 °FSunny.16 mph63%30.04 "Hg10 mi
3:00 pm63 °FSunny.21 mph59%30.04 "Hg10 mi
2:00 pm63 °FSunny.21 mph56%30.04 "Hg10 mi
1:00 pm63 °FPassing clouds.20 mph56%30.07 "HgN/A
12:37 pm63 °FPassing clouds.23 mph56%30.09 "HgN/A
12:00 pm63 °FPassing clouds.22 mph56%30.12 "HgN/A
11:52 am63 °FPassing clouds.22 mph56%30.12 "HgN/A
11:00 am63 °FSunny.18 mph56%30.12 "Hg10 mi
10:00 am61 °FSunny.16 mph63%30.12 "Hg10 mi
9:23 am59 °FSunny.10 mph68%30.12 "Hg10 mi
9:00 am55 °FPassing clouds.12 mph72%30.12 "HgN/A
8:29 am55 °FSunny.13 mph72%30.12 "Hg10 mi
8:00 am52 °FSunny.12 mph82%30.12 "Hg10 mi
7:00 am52 °FClear.9 mph82%30.12 "Hg10 mi
6:03 am50 °FClear.6 mph88%30.12 "Hg10 mi
5:00 am48 °FClear.8 mph82%30.12 "Hg10 mi
4:00 am50 °FClear.8 mph82%30.12 "Hg10 mi
3:00 am50 °FClear.7 mph82%30.12 "Hg10 mi
2:00 am52 °FClear.9 mph82%30.15 "Hg10 mi
1:00 am55 °FClear.13 mph82%30.15 "Hg10 mi
12:00 am55 °FPassing clouds.18 mph82%30.18 "HgN/A
11:00 pm
Thu, Jul 20
55 °FPassing clouds.18 mph82%30.18 "HgN/A
10:00 pm55 °FPassing clouds.16 mph88%30.21 "HgN/A
9:00 pm57 °FClear.18 mph82%30.21 "Hg10 mi
8:00 pm57 °FPassing clouds.17 mph82%30.21 "HgN/A
Weather by CustomWeather, © 2017

See weather overviewHow to use our weather pages